EHI
26 22 17 14 10 7 4 3 4 7 9 8 5 3 4 4 3 3 2 2 2 1 0 0 0 0 0 0 0 0 0 0 0 0 0 0 0 0 0 0 0 0 0
19 16 13 10 7 4 3 3 4 6 6 5 4 3 3 2 2 2 2 1 1 0 0 0 0 0 0 0 0 0 0 0 0 0 0 0 0 0 0 0 0 0 0
11 9 7 6 3 1 1 1 2 2 2 2 3 4 3 1 1 2 2 1 1 1 0 0 0 0 0 0 0 0 0 0 0 0 0 0 0 0 0 0 0 0 0
4 4 3 2 1 0 0 0 0 0 0 1 3 5 4 2 2 2 2 1 1 1 1 0 0 0 0 0 0 0 0 0 0 0 0 0 0 0 0 0 0 0 0
1 1 1 1 0 0 0 0 0 0 0 1 3 4 3 2 3 3 2 1 1 1 1 0 0 0 0 0 0 0 0 0 0 0 0 0 0 0 0 0 0 0 0
0 0 0 0 0 0 0 0 0 0 0 1 1 2 2 2 3 3 1 1 1 1 0 0 0 0 0 0 0 0 0 0 0 0 0 0 0 0 0 0 0 0 0
0 0 0 0 0 0 0 0 0 0 0 0 0 0 0 1 2 1 1 1 1 0 0 0 0 0 0 0 0 0 0 0 0 0 0 0 0 0 0 0 0 0 0
0 0 0 0 0 0 0 0 0 0 0 0 0 0 0 0 1 1 0 0 0 0 0 0 0 0 0 0 0 0 0 0 0 0 0 0 0 0 0 0 0 0 0
0 0 0 0 0 0 0 0 0 0 0 0 0 0 0 0 0 0 0 0 0 0 0 0 0 0 0 0 0 0 0 0 0 0 0 0 0 0 0 0 0 0 0
0 0 0 0 0 0 0 0 0 0 0 0 0 0 0 0 0 0 0 0 0 0 0 0 0 0 0 0 0 0 0 0 0 0 0 0 0 0 0 0 0 0 0
0 0 0 0 0 0 0 0 0 0 0 0 0 0 0 0 0 0 0 0 0 0 0 0 0 0 0 0 0 0 0 0 0 0 0 0 0 0 0 0 0 0 0
0 0 0 0 0 0 0 0 0 0 0 0 0 0 0 0 0 0 0 0 0 0 0 0 0 0 0 0 0 0 0 0 0 0 0 0 0 0 0 0 0 0 0
0 0 0 0 0 0 0 0 0 0 0 0 0 0 0 0 0 0 0 0 0 0 0 0 0 0 0 0 0 0 0 0 0 0 0 0 0 0 0 0 0 0 0
0 0 0 0 0 0 0 0 0 0 0 0 0 0 0 0 0 0 0 0 0 0 0 0 0 0 0 0 0 0 0 0 0 0 0 0 0 0 0 0 0 0 0
0 0 0 0 0 0 0 0 0 0 0 0 0 0 0 0 0 0 0 0 0 0 0 0 0 0 0 0 0 0 0 0 0 0 0 0 0 0 0 0 0 0 0
0 0 0 0 0 0 0 0 0 0 0 0 0 0 0 0 0 0 0 0 0 0 0 0 0 0 0 0 0 0 0 0 0 0 0 0 0 0 0 0 0 0 0
0 0 0 0 0 0 0 0 0 0 0 0 0 0 0 0 0 0 0 0 0 0 0 0 0 0 0 0 0 0 0 0 0 0 0 0 0 0 0 0 0 0 0
0 0 0 0 0 0 0 0 0 0 0 0 0 0 0 0 0 0 0 0 0 0 0 0 0 0 0 0 0 0 0 0 0 0 0 0 0 0 0 0 0 0 0
0 0 0 0 0 0 0 0 0 0 0 0 0 0 0 0 0 0 0 0 0 0 0 0 0 0 0 0 0 0 0 0 0 0 0 0 0 0 0 0 0 0 0
0 0 0 0 0 0 0 0 0 0 0 0 0 0 0 0 0 0 0 0 0 0 0 0 0 0 0 0 0 0 0 0 0 0 0 0 0 0 0 0 0 0 0
0 0 0 0 0 0 0 0 0 0 0 0 0 0 0 0 0 0 0 0 0 0 0 0 0 0 0 0 0 0 0 0 0 0 0 0 0 0 0 0 0 0 0
0 0 0 0 0 0 0 0 0 0 0 0 0 0 0 0 0 0 0 0 0 0 0 0 0 0 0 0 0 0 0 0 0 0 0 0 0 0 0 0 0 0 0
0 0 0 0 0 0 0 0 0 0 0 0 0 0 0 0 0 0 0 0 0 0 0 0 0 0 0 0 0 0 0 0 0 0 0 0 0 0 0 0 0 0 0
0 0 0 0 0 0 0 0 0 0 0 0 0 0 0 0 0 0 0 0 0 0 0 0 0 0 0 0 0 0 0 0 0 0 0 0 0 0 0 0 0 0 0
0 0 0 0 0 0 0 0 0 0 0 0 0 0 0 0 0 0 0 0 0 0 0 0 0 0 0 0 0 0 0 0 0 0 0 0 0 0 0 0 0 0 0
0 0 0 0 0 0 0 0 0 0 0 0 0 0 0 0 0 0 0 0 0 0 0 0 0 0 0 0 0 0 0 0 0 0 0 0 0 0 0 0 0 0 0
Wind_Speed
8 8 8 8 7 6 4 2 3 2 1 1 2 1 1 1 3 3 5 5 5 5 4 3 3 3 2 1 1 1 1 1 1 1 3 4 4 4 3 3 3 4 5
8 8 6 6 6 5 3 3 2 2 2 3 2 2 2 2 3 2 3 4 5 5 5 5 4 3 2 1 0 1 1 1 0 1 1 4 5 4 2 2 2 3 3
8 6 6 6 7 6 5 3 2 1 1 2 2 1 1 1 1 1 2 3 5 5 5 5 4 4 4 3 3 2 3 2 1 1 2 0 2 4 4 2 2 2 3
6 5 6 7 7 6 5 5 4 3 2 2 1 0 0 1 2 2 2 3 4 4 5 6 5 5 4 4 4 3 3 3 2 1 2 3 3 2 4 3 2 3 3
5 4 5 6 6 6 6 5 6 6 5 5 4 3 2 2 2 2 2 2 2 3 4 5 5 5 4 5 5 4 4 3 3 3 2 2 2 4 3 5 4 3 2
3 3 4 5 5 5 5 5 5 5 5 6 6 6 5 5 4 4 3 3 2 2 3 4 4 5 5 6 6 5 5 4 4 3 3 3 3 3 3 5 5 5 3
3 2 3 4 4 4 4 4 4 4 4 5 5 5 5 5 5 4 4 4 3 3 4 3 3 3 4 6 6 6 6 5 5 5 4 4 5 4 4 5 5 4 3
2 2 3 4 4 4 4 4 3 1 1 2 3 3 3 3 3 4 4 4 3 4 4 5 4 4 3 4 4 4 6 5 6 6 6 4 5 4 4 4 4 5 3
3 3 3 4 4 5 4 4 4 2 1 1 1 1 2 2 3 4 3 3 3 4 5 6 5 5 5 4 3 4 5 5 6 6 6 5 4 4 4 4 4 4 5
3 3 4 4 5 6 5 5 5 5 5 4 4 3 4 4 4 4 5 5 5 4 5 5 6 6 6 5 4 4 5 5 6 5 6 6 4 4 4 4 4 5 5
3 3 4 4 5 5 5 6 6 6 6 6 6 6 6 6 5 5 6 6 5 5 5 5 5 6 6 6 5 5 6 6 6 6 6 7 5 4 4 3 3 4 5
4 4 5 3 3 3 4 6 6 7 8 8 7 8 7 7 6 7 8 7 6 6 6 6 6 6 6 6 6 7 7 6 6 6 6 7 5 5 4 3 4 4 4
6 5 4 4 4 5 6 7 7 8 8 8 8 8 8 8 9 9 9 8 7 7 7 6 6 7 7 6 6 6 7 7 7 6 7 7 6 6 4 4 4 3 3
4 4 4 5 5 6 7 7 8 9 9 8 9 9 10 10 10 10 9 9 8 8 8 8 7 7 7 7 7 6 6 7 6 6 7 8 7 7 5 4 4 3 3
6 7 7 7 7 7 8 8 8 9 9 8 9 10 11 10 9 9 10 10 9 10 9 8 7 7 6 7 6 5 6 6 6 6 7 7 8 9 6 4 4 4 4
8 9 9 9 9 9 9 9 9 9 8 8 9 10 9 9 9 10 10 9 9 9 8 8 7 7 7 8 10 7 5 6 7 6 6 7 7 8 8 7 6 6 6
10 10 10 10 10 10 10 10 10 9 8 9 9 9 8 8 9 9 8 8 8 8 8 8 7 8 8 11 11 11 6 6 7 7 7 7 6 7 5 5 5 4 5
11 11 11 11 10 10 10 9 9 9 9 9 8 8 7 8 7 7 7 8 7 7 7 7 8 7 9 11 12 11 6 5 6 7 8 8 8 7 7 6 4 3 3
13 12 11 12 10 9 9 8 8 8 8 8 8 8 7 7 7 7 7 7 6 7 7 6 8 8 8 11 12 10 4 4 6 7 7 9 9 11 12 8 7 5 4
10 10 9 8 8 8 7 7 8 8 9 9 9 8 7 8 8 8 8 7 6 7 7 7 7 8 8 11 12 10 4 4 4 4 6 10 11 14 14 9 9 8 6
9 8 8 8 8 9 9 10 11 11 11 10 10 10 9 9 9 8 8 7 7 7 7 7 7 7 8 10 12 10 5 5 4 3 3 5 12 14 14 10 8 11 10
8 8 8 9 10 10 10 11 12 12 11 11 11 11 10 10 10 7 7 7 7 7 6 6 6 5 6 8 9 10 10 7 5 4 3 4 11 13 14 9 11 14 11
9 9 10 12 12 11 10 13 14 13 13 12 12 11 11 10 9 8 8 6 6 6 5 5 5 5 4 5 8 9 9 10 5 2 4 6 11 11 10 12 16 12 7
9 10 12 14 14 13 13 13 14 13 13 13 12 11 10 9 8 7 6 6 6 6 5 5 5 4 4 4 3 3 4 6 4 3 5 8 10 8 9 11 9 6 6
9 10 12 14 16 15 15 14 13 12 12 12 11 10 9 8 7 6 6 7 6 6 7 6 5 5 5 6 8 6 4 4 4 5 4 4 5 6 6 6 6 6 7
11 13 14 15 16 16 15 15 13 11 11 10 9 7 6 5 5 5 5 7 8 10 12 9 7 5 6 8 10 9 8 9 10 7 5 5 6 7 7 8 6 5 6
Wind_Direction
74 73 74 82 86 81 85 103 138 158 195 298 314 276 246 228 205 207 186 173 166 159 153 149 147 137 137 159 229 214 283 288 307 347 319 303 286 274 263 261 268 268 262
65 64 63 74 84 89 86 91 143 161 210 224 230 237 210 228 221 219 211 187 172 167 169 165 167 165 155 149 178 170 195 280 6 111 339 334 334 334 309 301 286 295 303
66 65 67 70 72 63 54 53 39 46 245 249 258 315 356 338 323 263 232 211 186 180 174 180 177 181 172 180 200 194 179 214 271 185 170 201 286 307 304 292 295 319 314
54 62 68 67 69 72 66 52 54 52 5 327 330 115 226 243 261 257 254 241 214 197 193 192 193 192 187 189 203 189 185 181 226 265 214 199 198 253 305 304 291 301 307
56 61 67 69 67 65 63 54 45 32 14 9 7 12 2 319 307 313 294 269 260 239 226 213 203 201 199 198 200 197 206 199 202 211 224 233 223 213 238 287 303 311 283
80 88 87 85 80 75 68 59 51 36 23 24 18 17 9 356 357 352 340 313 295 281 270 237 221 212 206 205 204 204 211 216 219 220 216 215 223 219 223 262 289 296 288
149 134 117 110 110 103 96 82 67 40 19 26 23 13 8 0 358 347 336 329 319 312 304 297 255 229 218 214 207 204 213 215 219 224 228 227 227 224 227 252 274 281 284
179 175 167 152 148 149 144 133 121 102 26 24 8 4 1 353 337 333 330 329 320 310 320 318 305 283 256 238 219 216 220 217 220 230 231 234 236 227 226 232 255 284 278
173 178 182 175 175 175 173 169 165 179 211 227 261 288 311 316 312 314 316 312 312 316 335 329 319 308 295 279 254 237 234 225 224 230 234 236 237 231 233 229 221 243 274
193 196 198 198 191 184 181 179 182 196 214 223 230 235 248 258 269 284 294 295 298 306 313 315 315 311 303 294 281 265 251 237 235 231 231 237 238 236 233 231 226 222 236
238 243 243 231 213 196 191 196 204 212 222 227 230 235 243 247 252 257 263 268 275 284 289 292 299 301 298 293 285 271 262 249 247 240 231 233 232 232 234 234 234 230 223
288 285 287 285 268 242 233 230 230 230 232 231 230 235 239 240 243 248 253 254 259 265 267 274 280 284 289 291 286 281 272 253 248 244 236 236 233 232 232 233 236 232 218
325 330 334 319 289 266 255 251 247 243 242 237 234 240 243 241 242 245 248 248 249 255 259 260 263 268 271 275 274 272 270 255 244 239 235 232 224 229 229 230 233 230 225
338 335 313 291 278 268 260 256 255 249 247 240 235 238 240 239 240 244 246 246 245 246 251 250 249 254 259 265 268 271 273 261 247 242 236 224 216 218 221 226 224 216 208
324 309 295 282 275 272 267 261 258 255 250 243 239 238 239 238 238 240 242 243 242 243 241 243 247 248 252 255 257 261 272 264 252 247 235 221 213 210 209 208 206 201 200
301 296 290 284 278 273 270 267 264 260 251 245 243 241 237 234 234 236 236 236 238 241 239 236 237 241 250 261 267 265 267 263 248 243 233 220 210 205 204 202 198 197 192
299 294 286 276 273 272 269 268 266 262 257 251 248 245 241 238 237 238 236 232 232 233 235 236 234 235 243 253 261 266 261 258 246 238 223 213 203 189 182 178 175 183 177
294 289 282 279 277 276 276 275 275 271 266 261 256 251 245 242 240 238 237 234 229 227 228 232 232 233 242 247 254 261 257 256 250 238 223 208 192 186 173 161 150 138 135
286 286 287 291 296 298 300 302 300 297 291 283 274 266 257 249 240 235 235 233 228 230 228 227 228 229 240 245 251 254 245 249 259 249 227 206 192 184 168 156 147 132 114
295 302 309 314 314 312 313 308 299 293 287 282 277 272 265 258 250 240 233 229 225 232 233 234 228 225 230 237 241 240 223 241 257 254 227 207 192 174 166 160 153 145 137
311 318 318 314 304 300 301 299 296 291 288 286 282 277 268 262 259 250 240 233 229 229 231 235 234 227 227 234 237 229 207 219 237 243 221 204 184 172 168 162 157 150 140
316 314 311 306 301 302 302 299 295 291 290 289 286 281 273 269 272 257 247 235 227 229 231 232 238 233 229 228 232 224 214 209 215 223 200 183 172 172 166 157 145 140 131
312 313 310 310 309 306 301 298 296 294 291 287 283 279 276 268 261 254 250 244 230 225 225 220 226 233 229 227 224 213 209 207 202 199 175 166 167 165 161 148 142 138 128
314 313 316 316 314 310 304 298 297 294 290 287 284 278 273 267 259 250 243 240 229 219 217 213 217 220 214 206 196 187 185 186 182 162 142 151 160 158 144 142 138 131 131
314 316 319 316 314 313 309 305 302 299 294 289 285 279 270 263 258 250 240 233 227 215 206 206 198 194 205 208 187 174 179 175 161 144 134 144 151 145 138 132 126 124 125
320 321 319 317 315 314 311 310 307 304 299 296 291 283 273 264 255 253 259 242 235 233 223 213 195 196 191 172 169 167 162 158 152 145 144 152 155 152 148 144 134 129 135